Weather History for Firenze / Peretola, Italy

Change the Weather History Date:

Wednesday, October 2, 2013

  Actual Average Record
Temperature  
Mean Temperature 68 °F -  
Max Temperature 77 °F 69 °F - ()
Min Temperature 60 °F 49 °F - ()
Cooling Degree Days 4    
Growing Degree Days 18 (Base 50)    
Moisture  
Dew Point 55 °F    
Average Humidity 66    
Maximum Humidity 94    
Minimum Humidity 41    
Precipitation  
Precipitation 0.00 in 0.12 in - ()
Sea Level Pressure  
Sea Level Pressure 29.94 in    
Wind  
Wind Speed 4 mph ()    
Max Wind Speed 13 mph    
Max Gust Speed 20 mph    
Visibility 6.2 miles    
Events      
T = Trace of Precipitation, MM = Missing Value Source: Averaged Metar Reports

Daily Weather History Graph

Daily Weather History Graph

Search for Another Location

Airport:

Trip Planner

Search our weather history database for the weather conditions in past years. The results will help you decide how hot, cold, wet, or windy it might be!

Date:

Astronomy

Oct. 02, 2013 Rise Set
Actual Time 7:13 AM CEST 6:54 PM CEST
Civil Twilight 6:45 AM CEST 7:22 PM CEST
Nautical Twilight 6:11 AM CEST 7:56 PM CEST
Astronomical Twilight 5:38 AM CEST 8:29 PM CEST
Moon 4:25 AM CEST (10/2) 5:24 PM CEST (10/2)
Length of Visible Light 12h 37m
Length of Day
11h 40m
Waning Crescent, 7% of the Moon is Illuminated
Oct 2
Waning Crescent
Oct 5
New
Oct 12
First Quarter
Oct 19
Full
Oct 27
Last Quarter

Hourly Weather History & Observations

Time (CEST) Temp. Dew Point Humidity Pressure Visibility Wind Dir Wind Speed Gust Speed Precip Events Conditions
12:20 AM 62.6 °F 59.0 °F 88% 29.83 in 6.2 mi South 2.3 mph - N/A   Scattered Clouds
12:50 AM 62.6 °F 59.0 °F 88% 29.83 in 6.2 mi Variable 1.2 mph - N/A   Scattered Clouds
1:20 AM 64.4 °F 59.0 °F 83% 29.83 in 6.2 mi Variable 1.2 mph - N/A   Scattered Clouds
1:50 AM 62.6 °F 59.0 °F 88% 29.83 in 6.2 mi South 3.5 mph - N/A   Scattered Clouds
2:20 AM 62.6 °F 59.0 °F 88% 29.83 in 6.2 mi SSW 3.5 mph - N/A   Scattered Clouds
2:50 AM 62.6 °F 59.0 °F 88% 29.83 in 6.2 mi Variable 1.2 mph - N/A   Scattered Clouds
3:20 AM 62.6 °F 59.0 °F 88% 29.83 in 6.2 mi Calm Calm - N/A   Scattered Clouds
3:50 AM 62.6 °F 59.0 °F 88% 29.83 in 6.2 mi Variable 1.2 mph - N/A   Scattered Clouds
4:20 AM 62.6 °F 59.0 °F 88% 29.86 in 6.2 mi Variable 1.2 mph - N/A   Scattered Clouds
4:50 AM 62.6 °F 59.0 °F 88% 29.86 in 6.2 mi Variable 2.3 mph - N/A   Scattered Clouds
5:20 AM 62.6 °F 59.0 °F 88% 29.86 in 6.2 mi Variable 1.2 mph - N/A   Scattered Clouds
5:50 AM 60.8 °F 59.0 °F 94% 29.86 in 6.2 mi Calm Calm - N/A   Scattered Clouds
6:20 AM 60.8 °F 59.0 °F 94% 29.86 in 6.2 mi Calm Calm - N/A   Mostly Cloudy
6:50 AM 60.8 °F 59.0 °F 94% 29.86 in 6.2 mi Variable 2.3 mph - N/A   Mostly Cloudy
7:20 AM 62.6 °F 57.2 °F 82% 29.89 in 6.2 mi Variable 2.3 mph - N/A   Mostly Cloudy
7:50 AM 62.6 °F 57.2 °F 82% 29.89 in 6.2 mi Variable 2.3 mph - N/A   Mostly Cloudy
8:20 AM 62.6 °F 57.2 °F 82% 29.89 in 6.2 mi Variable 1.2 mph - N/A   Mostly Cloudy
8:50 AM 66.2 °F 55.4 °F 68% 29.92 in 6.2 mi Variable 1.2 mph - N/A   Mostly Cloudy
9:20 AM 68.0 °F 51.8 °F 56% 29.92 in 6.2 mi Variable 2.3 mph - N/A   Partly Cloudy
9:50 AM 69.8 °F 53.6 °F 56% 29.92 in - SSW 4.6 mph - N/A   Clear
10:20 AM 69.8 °F 51.8 °F 53% 29.95 in - South 3.5 mph - N/A   Clear
10:50 AM 71.6 °F 51.8 °F 50% 29.95 in - NE 8.1 mph - N/A   Clear
11:20 AM 71.6 °F 51.8 °F 50% 29.95 in - NNE 8.1 mph 19.6 mph N/A   Clear
11:50 AM 73.4 °F 51.8 °F 47% 29.95 in - NNE 11.5 mph - N/A   Clear
12:20 PM 73.4 °F 53.6 °F 50% 29.95 in - NE 11.5 mph - N/A   Clear
12:50 PM 73.4 °F 53.6 °F 50% 29.95 in 6.2 mi ENE 10.4 mph - N/A   Partly Cloudy
1:20 PM 75.2 °F 55.4 °F 50% 29.95 in 6.2 mi NE 11.5 mph - N/A   Partly Cloudy
1:50 PM 75.2 °F 55.4 °F 50% 29.95 in 6.2 mi ENE 10.4 mph - N/A   Partly Cloudy
2:20 PM 75.2 °F 53.6 °F 47% 29.95 in 6.2 mi NNE 11.5 mph - N/A   Partly Cloudy
2:50 PM 75.2 °F 51.8 °F 44% 29.95 in 6.2 mi NE 12.7 mph - N/A   Partly Cloudy
3:20 PM 77.0 °F 53.6 °F 44% 29.95 in 6.2 mi NE 9.2 mph - N/A   Partly Cloudy
3:50 PM 75.2 °F 51.8 °F 44% 29.95 in 6.2 mi NE 11.5 mph - N/A   Partly Cloudy
4:20 PM 75.2 °F 51.8 °F 44% 29.95 in 6.2 mi ENE 8.1 mph - N/A   Partly Cloudy
4:50 PM 75.2 °F 50.0 °F 41% 29.95 in - NE 9.2 mph - N/A   Clear
5:20 PM 73.4 °F 51.8 °F 47% 29.98 in - NE 10.4 mph - N/A   Clear
5:50 PM 73.4 °F 51.8 °F 47% 29.98 in - NE 8.1 mph - N/A   Clear
6:20 PM 71.6 °F 53.6 °F 53% 29.98 in - NE 5.8 mph - N/A   Clear
6:50 PM 68.0 °F 53.6 °F 60% 29.98 in - ENE 5.8 mph - N/A   Clear
7:20 PM 68.0 °F 53.6 °F 60% 30.01 in - Variable 2.3 mph - N/A   Clear
7:50 PM 68.0 °F 51.8 °F 56% 30.01 in - SE 5.8 mph - N/A   Clear
8:20 PM 66.2 °F 51.8 °F 60% 30.01 in - Variable 6.9 mph - N/A   Clear
8:50 PM 64.4 °F 53.6 °F 68% 30.04 in - Variable 1.2 mph - N/A   Clear
9:20 PM 64.4 °F 51.8 °F 64% 30.04 in - ENE 10.4 mph - N/A   Clear
9:50 PM 64.4 °F 51.8 °F 64% 30.06 in - Variable 5.8 mph - N/A   Clear
10:20 PM 66.2 °F 51.8 °F 60% 30.09 in - North 11.5 mph - N/A   Clear
10:50 PM 62.6 °F 50.0 °F 63% 30.09 in - Variable 2.3 mph - N/A   Clear
11:20 PM 64.4 °F 50.0 °F 59% 30.09 in - Variable 2.3 mph - N/A   Clear
11:50 PM 64.4 °F 50.0 °F 59% 30.12 in - North 5.8 mph - N/A   Clear